Location: Observatoire
(46.1952°N, 5.3391°E)
Time: 22:22:37
(UTC+01:00)

Tiros 1 despin weight - Pass Details

Date: 24 February 2026
Orbit: 556 x 593 km, 48.2° (Epoch: 3 March)

Event Time Altitude Azimuth Distance (km) Brightness Sun altitude
Rises 15:00:40 0° 262° (W) 2,749 ? 27.5°
Reaches altitude 10° 15:02:56 10° 264° (W) 1,849 ? 27.2°
Maximum altitude 15:07:09 74° 350° (N) 585 ? 26.8°
Drops below altitude 10° 15:11:21 10° 76° (ENE) 1,839 ? 26.3°
Sets 15:13:36 0° 78° (ENE) 2,733 ? 26.1°
